Regional Weather Roundup
Issued by NWS Goodland, KS

Home | Current Version | Previous Version | Text Only | Print | Product List | Glossary On
Versions: 1 2 3 4 5 6 7 8 9 10 11 12 13 14 15 16 17 18 19 20 21 22 23 24 25 26 27 28 29 30 31 32 33 34 35 36 37 38 39 40 41 42 43 44 45 46 47 48 49 50
000
ASUS43 KGLD 281208
RWRGLD

GOODLAND FORECAST AREA HOURLY WEATHER ROUNDUP
NATIONAL WEATHER SERVICE GOODLAND KS
600 AM MDT FRI AUG 28 2015

...OFFICIAL OBSERVATIONS...

CITY           SKY/WX    TMP DP  RH WIND       PRES   REMARKS
GOODLAND KS    CLEAR     58  55  90 W9        30.04S
HILL CITY KS   CLEAR     67  63  87 W7        29.92R
IMPERIAL NEB   CLEAR     59  55  87 NW10      30.00R
MCCOOK NEB     CLEAR     63  60  90 W12       29.95R
AKRON CO       MOCLDY    60  56  86 W10       30.12R
BURLINGTON CO  CLEAR     57  53  86 W8        30.09R
LIMON CO       PTCLDY    57  54  89 W10       30.17S
$$

...UNOFFICIAL OBSERVATIONS...

CITY           SKY/WX    TMP DP  RH WIND       PRES   REMARKS
COLBY KS       CLEAR     63  61  94 W13       30.00F
GOVE KS          N/A     65  32  29 MISG        N/A
LENORA KS        N/A     65  32  29 MISG        N/A
NORTON KS      CLEAR     64  61  88 W12       29.91
SHARON SPRINGS   N/A     61  57  88 NW7         N/A
KIT CARSON CO    N/A     57  53  88 MISG        N/A
YUMA CO          N/A     59  56  91 NW6         N/A
$$


USA.gov is the U.S. government's official web portal to all federal, state and local government web resources and services.